[[{"header":{"parameterUnit":"m.s-1","parameterCategory":1,"la1":30.2991,"la2":30.254,"lo1":-89.0895,"lo2":-89.0444,"dy":0.0017,"dx":0.0017,"nx":28,"ny":28,"refTime":"2024-12-24T09:00:00:Z","depth":0,"parameterNumber":2,"parameterNumberName":"U-component_of_WINDS"},"data":[0,0,0,0,0,0,0,0,0,0,0,0,0,0,0,0,0,0,0,0,0,0,0,0,0,0,0,0,0,0,0,0,0,0,0,0,0,0,0,0,0,0,0,0,0,0,0,0,0,0,0,0,0,0,0,0,0,0,-5.8151,-5.815,0,-5.8133,-5.8133,-5.8133,-5.7939,-5.7934,-5.793,-5.7925,-5.791,-5.7914,-5.7918,0,0,0,0,0,0,0,0,0,0,0,0,0,-5.802,-5.8023,-5.8151,-5.815,-5.815,-5.8133,-5.8133,-5.8133,-5.794,-5.7934,-5.7928,-5.7923,-5.7908,-5.7913,-5.7918,0,0,0,0,0,0,0,0,0,0,0,0,0,-5.8047,-5.8024,-5.8151,-5.8052,-5.8043,-5.8133,-5.8133,-5.8133,-5.7941,-5.7934,-5.7927,-5.792,-5.7907,-5.7913,-5.7919,-5.8103,0,0,-5.7938,-5.794,0,0,0,0,0,0,0,0,-5.8046,-5.8052,-5.8067,-5.8059,-5.8049,-5.8031,-5.8081,-5.8123,-5.7943,-5.798,-5.7925,-5.7916,-5.7956,-5.7958,-5.797,-5.8102,-5.8101,-5.7938,-5.7942,-5.7944,-5.7946,0,0,0,0,0,0,0,-5.8044,-5.8052,-5.8144,-5.8067,-5.8057,-5.8009,-5.8005,-5.8088,-5.8009,-5.7976,-5.7962,-5.7963,-5.795,-5.7965,-5.7969,-5.8101,-5.7938,-5.7943,-5.7947,-5.795,-5.8382,-5.839,0,0,0,0,0,0,-5.8056,-5.8051,-5.8144,-5.8143,-5.8029,-5.8018,-5.8013,-5.8044,-5.8008,-5.7995,-5.7969,-5.7954,-5.7958,-5.7962,-5.7967,-5.8179,-5.7944,-5.795,-5.7954,-5.8374,-5.8384,-5.8392,0,0,0,0,0,0,-5.8053,-5.8066,-5.8145,-5.8093,-5.81,-5.8028,-5.8064,-5.8048,-5.8062,-5.8002,-5.7987,-5.7999,-5.7952,-5.7959,-5.807,-5.8176,-5.7953,-5.7959,-5.8365,-5.8377,-5.8388,-5.8606,0,0,0,0,0,0,-5.8051,-5.8066,-5.8135,-5.8096,-5.8103,-5.8248,-5.8071,-5.8053,-5.8073,-5.8053,-5.8026,-5.8015,-5.7947,-5.8062,-5.8076,-5.8181,-5.7963,-5.8355,-5.8371,-5.8384,-5.8589,-5.8624,-5.8654,0,0,0,0,0,-5.8046,-5.8197,-5.8139,-5.8151,-5.8188,-5.8255,-5.8258,-5.8177,-5.8083,-5.8151,-5.8113,-5.8016,-5.8163,-5.8075,-5.809,-5.8197,-5.8348,-5.8366,-5.8383,-5.8575,-5.8617,-5.8653,0,0,0,0,0,0,-5.8251,-5.8191,-5.8125,-5.8268,-5.8268,-5.8222,-5.8306,-5.8225,-5.8251,-5.8232,-5.813,-5.8126,-5.8253,-5.8236,-5.814,-5.8373,-5.8239,-5.826,-5.8379,-5.8419,-5.8451,-5.8451,-5.7969,0,0,0,0,0,-5.8313,-5.8371,-5.8316,-5.8447,-5.845,-5.8379,-5.8405,-5.8342,-5.8338,-5.8337,-5.8306,-5.8307,-5.8352,-5.8385,-5.8424,-5.8586,-5.8577,-5.8668,-5.87,-5.8727,-5.8746,-5.883,-5.8869,-5.845,-5.845,-5.8449,0,0,-5.8441,-5.8415,-5.8458,-5.8488,-5.848,-5.8543,-5.838,-5.8454,-5.85,-5.8348,-5.8451,-5.8429,-5.8423,-5.8561,-5.862,-5.8551,-5.886,-5.8749,-5.8771,-5.8775,-5.8852,-5.8892,-5.8927,-5.8462,-5.8459,-5.8458,0,0,-5.8706,-5.8693,-5.88,-5.8796,-5.8786,-5.8737,-5.8764,-5.873,-5.8709,-5.8811,-5.8698,-5.8752,-5.8834,-5.8834,-5.8844,-5.9111,-5.9022,-5.9127,-5.9295,-5.9378,-5.9411,-5.9439,-5.9534,-5.9569,-5.9146,-5.9147,-5.9147,0,-5.8866,-5.8956,-5.8866,-5.8947,-5.8964,-5.8829,-5.8937,-5.8938,-5.8942,-5.8957,-5.8879,-5.8979,-5.8965,-5.91,-5.9166,-5.9179,-5.9206,-5.9129,-5.9413,-5.9441,-5.9467,-5.9555,-5.9591,-5.916,-5.9158,-5.9157,-5.9156,0,-5.9153,-5.9218,-5.9306,-5.9313,-5.9339,-5.9434,-5.9359,-5.9397,-5.9332,-5.9293,-5.9398,-5.9377,-5.9409,-5.9437,-5.9375,-5.9564,-5.9521,-5.9431,-5.9293,-5.9521,-5.9602,-5.9635,-5.9178,-5.9173,-5.9169,-5.9166,0,0,-5.9545,-5.9501,-5.9535,-5.9536,-5.9516,-5.9564,-5.9654,-5.9684,-5.9718,-5.9726,-5.9798,-5.9871,-5.9786,-5.9799,-5.9736,-5.981,-6.0021,-5.9709,-5.9707,-5.9767,-6.0227,-6.0295,-6.0335,-5.9963,-5.9969,-5.9974,-6.0227,0,-5.98,-5.9948,-5.987,-6.0029,-6.0087,-5.996,-6.0038,-6.0035,-6.0,-6.0045,-6.0007,-6.006,-5.9945,-5.9952,-6.0019,-5.9981,-6.0112,-5.9962,-6.0029,-6.0032,-6.0033,-6.0378,-6.0449,-6.0689,-6.0259,-6.0264,-6.0268,0,-6.0115,-6.0136,-6.0301,-6.0269,-6.0291,-6.0362,-6.0383,-6.0428,-6.0422,-6.0392,-6.0407,-6.0327,-6.0412,-6.0278,-6.0394,-6.0294,-6.0317,-6.0303,-6.0311,-6.0312,-6.0163,-6.0388,-6.0763,-6.0799,-6.0317,-6.0313,-6.031,0,-6.0383,-6.0453,-6.0559,-6.0565,-6.0531,-6.0584,-6.0573,-6.0559,-6.0583,-6.0602,-6.0616,-6.0647,-6.0664,-6.0689,-6.062,-6.0528,-6.0746,-6.0605,-6.0723,-6.0725,-6.0773,-6.077,-6.1156,-6.0791,-6.0791,-6.079,-6.0789,0,-6.0674,-6.078,-6.0679,-6.0745,-6.0859,-6.077,-6.0886,-6.0861,-6.085,-6.0909,-6.0803,-6.0861,-6.0766,-6.0815,-6.0762,-6.0866,-6.0875,-6.0853,-6.0837,-6.0861,-6.0864,-6.0873,-6.0854,-6.0799,-6.0797,-6.0796,-6.0794,0,-6.0992,-6.0929,-6.1037,-6.0996,-6.0989,-6.1075,-6.104,-6.11,-6.1059,-6.1135,-6.1148,-6.1083,-6.1135,-6.1069,-6.1115,-6.1079,-6.1221,-6.1181,-6.1223,-6.1211,-6.1331,-6.1321,-6.1736,-6.1785,-6.1391,-6.1395,-6.1398,0,-6.1181,-6.1259,-6.1227,-6.1258,-6.1253,-6.1305,-6.1328,-6.1244,-6.1273,-6.1272,-6.1332,-6.1375,-6.1404,-6.1494,-6.1451,-6.1486,-6.1445,-6.1589,-6.145,-6.1472,-6.1446,-6.1441,-6.1448,-6.1616,-6.1621,-6.1625,-6.1628,0,-6.1522,-6.1487,-6.1524,-6.1552,-6.1582,-6.16,-6.1609,-6.1641,-6.1553,-6.1591,-6.1642,-6.1665,-6.1712,-6.1756,-6.178,-6.1768,-6.1684,-6.1673,-6.1701,-6.1726,-6.1746,-6.1735,-6.1298,-6.1663,-6.1659,-6.1657,-6.1655,-6.1654,-6.178,-6.1843,-6.183,-6.1875,-6.1873,-6.1885,-6.1938,-6.1904,-6.1945,-6.1975,-6.1924,-6.1989,-6.1981,-6.2004,-6.2002,-6.2052,-6.199,-6.2033,-6.2043,-6.2054,-6.2072,-6.174,-6.2057,-6.2056,-6.2055,-6.2054,-6.2053,0,-6.2114,-6.21,-6.2142,-6.2158,-6.2194,-6.2112,-6.2118,-6.2154,-6.2212,-6.2212,-6.2243,-6.2303,-6.2345,-6.2307,-6.2341,-6.2389,-6.2351,-6.2401,-6.2395,-6.2394,-6.2126,-6.2097,-6.2431,-6.2431,-6.243,-6.243,-6.243,-6.243,-6.2292,-6.2394,-6.2358,-6.2459,-6.2443,-6.2505,-6.2516,-6.2526,-6.2525,-6.2596,-6.2631,-6.2605,-6.259,-6.2623,-6.2658,-6.2646,-6.2663,-6.2726,-6.27,-6.245,-6.2413,-6.2377,-6.2349,-6.2731,-6.2731,-6.2963,-6.2966,-6.2967]},{"header":{"parameterUnit":"m.s-1","parameterCategory":1,"la1":30.2991,"la2":30.254,"lo1":-89.0895,"lo2":-89.0444,"dy":0.0017,"dx":0.0017,"nx":28,"ny":28,"refTime":"2024-12-24T09:00:00:Z","depth":0,"parameterNumber":3,"parameterNumberName":"V-component_of_WINDS"},"data":[0,0,0,0,0,0,0,0,0,0,0,0,0,0,0,0,0,0,0,0,0,0,0,0,0,0,0,0,0,0,0,0,0,0,0,0,0,0,0,0,0,0,0,0,0,0,0,0,0,0,0,0,0,0,0,0,0,0,-1.1333,-1.1334,0,-1.1353,-1.1353,-1.1353,-1.1367,-1.1367,-1.1367,-1.1367,-1.1385,-1.1385,-1.1385,0,0,0,0,0,0,0,0,0,0,0,0,0,-1.1305,-1.1305,-1.1333,-1.1334,-1.1334,-1.1353,-1.1353,-1.1353,-1.1366,-1.1367,-1.1367,-1.1367,-1.1385,-1.1385,-1.1386,0,0,0,0,0,0,0,0,0,0,0,0,0,-1.132,-1.1305,-1.1333,-1.1343,-1.1344,-1.1352,-1.1353,-1.1353,-1.1366,-1.1367,-1.1367,-1.1367,-1.1384,-1.1385,-1.1386,-1.1386,0,0,-1.1387,-1.1388,0,0,0,0,0,0,0,0,-1.1319,-1.1321,-1.1341,-1.1342,-1.1343,-1.1357,-1.1349,-1.1364,-1.1366,-1.1358,-1.1367,-1.1367,-1.1375,-1.1377,-1.138,-1.1387,-1.1387,-1.1387,-1.1388,-1.1388,-1.1388,0,0,0,0,0,0,0,-1.1318,-1.132,-1.1341,-1.1341,-1.1343,-1.1345,-1.1347,-1.1352,-1.1365,-1.1359,-1.136,-1.1362,-1.1376,-1.1379,-1.138,-1.1388,-1.1387,-1.1388,-1.1388,-1.1388,-1.1392,-1.1391,0,0,0,0,0,0,-1.1316,-1.1319,-1.134,-1.1342,-1.1331,-1.1345,-1.1348,-1.1353,-1.1365,-1.1368,-1.1362,-1.1362,-1.1378,-1.138,-1.1381,-1.138,-1.1388,-1.1388,-1.1389,-1.1392,-1.1392,-1.1391,0,0,0,0,0,0,-1.1315,-1.1317,-1.134,-1.1331,-1.1334,-1.1346,-1.1351,-1.1353,-1.1356,-1.1368,-1.137,-1.1363,-1.1378,-1.138,-1.1384,-1.1381,-1.1389,-1.1389,-1.1392,-1.1392,-1.1392,-1.1379,0,0,0,0,0,0,-1.1314,-1.1317,-1.1318,-1.133,-1.1334,-1.1343,-1.1351,-1.1353,-1.1357,-1.1359,-1.1369,-1.1371,-1.1379,-1.1383,-1.1384,-1.1382,-1.139,-1.1393,-1.1392,-1.1392,-1.138,-1.1378,-1.1377,0,0,0,0,0,-1.1313,-1.1315,-1.1319,-1.1321,-1.1336,-1.1343,-1.1345,-1.1354,-1.1357,-1.1358,-1.1364,-1.1371,-1.1381,-1.1383,-1.1385,-1.1382,-1.1393,-1.1392,-1.1392,-1.138,-1.1379,-1.1377,0,0,0,0,0,0,-1.1302,-1.1317,-1.1321,-1.1327,-1.1333,-1.1345,-1.1347,-1.1352,-1.1358,-1.1359,-1.1369,-1.1371,-1.1373,-1.1378,-1.138,-1.1381,-1.1387,-1.1387,-1.1378,-1.1377,-1.1375,-1.1374,-1.139,0,0,0,0,0,-1.13,-1.1306,-1.1318,-1.1322,-1.1325,-1.1335,-1.1338,-1.1344,-1.1352,-1.1355,-1.1362,-1.1368,-1.1372,-1.1375,-1.1379,-1.138,-1.1382,-1.1379,-1.1378,-1.1377,-1.1376,-1.1374,-1.1373,-1.139,-1.139,-1.139,0,0,-1.1297,-1.1306,-1.1309,-1.1319,-1.1326,-1.1329,-1.1337,-1.1342,-1.1344,-1.1355,-1.1359,-1.1364,-1.1371,-1.1372,-1.1373,-1.1377,-1.1371,-1.1376,-1.1375,-1.1375,-1.1373,-1.1372,-1.137,-1.1389,-1.1389,-1.1389,0,0,-1.1293,-1.1301,-1.1303,-1.1308,-1.1317,-1.1323,-1.1324,-1.1334,-1.1338,-1.1341,-1.1349,-1.1351,-1.1359,-1.1363,-1.1366,-1.1359,-1.1364,-1.136,-1.1353,-1.1351,-1.1349,-1.1348,-1.1344,-1.1342,-1.136,-1.136,-1.136,0,-1.1288,-1.1295,-1.1304,-1.1307,-1.1311,-1.132,-1.1321,-1.1326,-1.1335,-1.1337,-1.134,-1.1348,-1.1354,-1.1355,-1.1353,-1.1356,-1.1355,-1.1359,-1.1349,-1.1348,-1.1347,-1.1343,-1.1341,-1.1359,-1.1359,-1.1359,-1.1359,0,-1.1286,-1.1291,-1.1292,-1.13,-1.1303,-1.1306,-1.1314,-1.1316,-1.1321,-1.1326,-1.1328,-1.1334,-1.1339,-1.134,-1.1345,-1.1341,-1.1342,-1.1347,-1.1353,-1.1344,-1.134,-1.1339,-1.1358,-1.1358,-1.1358,-1.1359,0,0,-1.1278,-1.1289,-1.1289,-1.1292,-1.13,-1.1303,-1.1304,-1.1309,-1.131,-1.1315,-1.1315,-1.132,-1.1324,-1.1327,-1.1332,-1.133,-1.1321,-1.1335,-1.1335,-1.1331,-1.1314,-1.131,-1.1308,-1.1325,-1.1325,-1.1325,-1.1313,0,-1.1274,-1.1278,-1.1285,-1.1286,-1.1288,-1.1295,-1.1296,-1.13,-1.1304,-1.1306,-1.131,-1.1313,-1.1319,-1.132,-1.1319,-1.1323,-1.1318,-1.1324,-1.1323,-1.1323,-1.1321,-1.1306,-1.1302,-1.1291,-1.1312,-1.1312,-1.1311,0,-1.1271,-1.1275,-1.1276,-1.1281,-1.1282,-1.1283,-1.1286,-1.1288,-1.1292,-1.1295,-1.1297,-1.1302,-1.1302,-1.1307,-1.1306,-1.1309,-1.1309,-1.1311,-1.131,-1.131,-1.1316,-1.1304,-1.1288,-1.1286,-1.1309,-1.131,-1.131,0,-1.1262,-1.1268,-1.1268,-1.127,-1.1277,-1.1277,-1.128,-1.1284,-1.1285,-1.1287,-1.1287,-1.1289,-1.129,-1.1291,-1.1296,-1.13,-1.1292,-1.1299,-1.1293,-1.1293,-1.1291,-1.1291,-1.1274,-1.1293,-1.1293,-1.1293,-1.1293,0,-1.1257,-1.1257,-1.1264,-1.1265,-1.1264,-1.127,-1.1269,-1.1272,-1.1274,-1.1274,-1.128,-1.128,-1.1286,-1.1286,-1.1289,-1.1286,-1.1287,-1.1288,-1.1288,-1.1286,-1.1286,-1.1286,-1.1287,-1.1293,-1.1293,-1.1293,-1.1293,0,-1.1248,-1.1253,-1.1254,-1.1259,-1.126,-1.1259,-1.1263,-1.1262,-1.1265,-1.1265,-1.1265,-1.127,-1.1269,-1.1274,-1.1274,-1.1276,-1.127,-1.1273,-1.1269,-1.1269,-1.1263,-1.1262,-1.1244,-1.124,-1.1263,-1.1263,-1.1263,0,-1.1244,-1.1244,-1.1248,-1.1248,-1.125,-1.1251,-1.1251,-1.1256,-1.1257,-1.1259,-1.1257,-1.1257,-1.1257,-1.1255,-1.1258,-1.1257,-1.1259,-1.1252,-1.1259,-1.1256,-1.1257,-1.1256,-1.1255,-1.1251,-1.1251,-1.125,-1.125,0,-1.1236,-1.1237,-1.1238,-1.1239,-1.1239,-1.124,-1.1241,-1.1241,-1.1246,-1.1245,-1.1244,-1.1244,-1.1243,-1.1242,-1.1241,-1.1243,-1.1246,-1.1248,-1.1246,-1.1244,-1.1241,-1.124,-1.1264,-1.1248,-1.1248,-1.1249,-1.1249,-1.1249,-1.1228,-1.1227,-1.1229,-1.1229,-1.123,-1.123,-1.1229,-1.1231,-1.123,-1.123,-1.1232,-1.123,-1.123,-1.123,-1.123,-1.1227,-1.123,-1.1228,-1.1228,-1.1227,-1.1225,-1.1242,-1.1227,-1.1227,-1.1227,-1.1228,-1.1228,0,-1.1219,-1.1219,-1.1219,-1.122,-1.1219,-1.1222,-1.1222,-1.1221,-1.1219,-1.1219,-1.1218,-1.1215,-1.1213,-1.1214,-1.1212,-1.1209,-1.121,-1.1208,-1.1208,-1.1208,-1.1223,-1.1224,-1.1207,-1.1207,-1.1207,-1.1207,-1.1207,-1.1207,-1.1214,-1.1211,-1.1212,-1.1209,-1.121,-1.1207,-1.1207,-1.1206,-1.1206,-1.1202,-1.12,-1.1201,-1.12,-1.1197,-1.1195,-1.1195,-1.1193,-1.119,-1.119,-1.1205,-1.1207,-1.1209,-1.121,-1.119,-1.119,-1.1175,-1.1175,-1.1175]}]]